sat.trackr.live / text

‹ back to catalog

STARLINK-36221

NORAD 67215 · 2025-304Z

PAYLOAD ACTIVE UNKNOWN

§ Identity

Operator
Country
US
Launch date
2025-12-17
Launch site
AFWTR
Launch vehicle
Mass (kg)
RCS (m²)

Purposes: comms

External: N2YO · Heavens-Above · Gunter

§ Orbital elements

Epoch: 2026-05-24T22:39:44.572032Z

Period
96.11 min
Inclination
70.0012°
Eccentricity
0.0002925
Mean motion
14.98324928 rev/d
Perigee alt
570.0 km
Apogee alt
574.1 km
Semi-major
6,950.2 km
B*
-3.4535e-4
RAAN
342.3180°
Arg perigee
265.3719°
Mean anomaly
94.7106°
Rev number
2,530

§ Raw data

STARLINK-362211 67215U 25304Z   26144.94426588 -.00004211  00000+0 -34535-3 0  99902 67215  70.0012 342.3180 0002925 265.3719  94.7106 14.98324928 25302

JSON: /api/v1/satellites/67215 · /tle

For live sub-satellite position, see the globe view (requires WebGL).

§ Visibility from observer

Set your observer location to see the next 7 days of passes ≥ 10°. The values pass through the URL so the page stays shareable.

No JS? Fill the form by hand. The geolocation button needs JavaScript.